Tracking 19575 objects as of 20-Feb-2019
HD Live streaming from Space Station
objects crossing your sky now

GORIZONT 32

Track GORIZONT 32 now!
GORIZONT 32 is classified as:


NORAD ID: 23880
Int'l Code: 1996-034A
Perigee: 35,766.3 km
Apogee: 35,882.6 km
Inclination: 14.3 °
Period: 1,437.7 minutes
Semi major axis: 42195 km
RCS: 17.7827 m2 (large)
Launch date: May 25, 1996
Source: Commonwealth of Independent States (former USSR) (CIS)
Launch site: TYURATAM MISSILE AND SPACE COMPLEX (TTMTR)

Telecommunications; augment television channels available to the people of Siberia.
aabbcc
Your satellite tracking list
Your tracking list is empty




NASA's NSSDC Master Catalog

Two Line Element Set (TLE):
1 23880U 96034A   19050.84921921 -.00000301 +00000-0 +00000-0 0  9999
2 23880 014.3050 016.6185 0013791 304.7275 068.4257 01.00162341083261
Source of the keplerian elements: AFSPC